TITAN 3A TRANSTAGE R/B, 1359

Orbit data source: Space-Track

TITAN 3A TRANSTAGE R/B, 1359 is space debris in LEO originally from a launch on Thu, 06 May 1965 UTC via a TITAN IIIA launch vehicle from the Air Force Eastern Test Range (AFETR). Debris objects in space refer to the collection of defunct objects orbiting the Earth. Examples of debris include non-operational satellites, rocket bodies, and fragments generated from explosions, collisions, or faulty payload assembly.

Loading next visibility...
Identifier
1359, 1965-034A
Orbit
LEO
Country
Flag of USUS
Related business
Manufacturer
Martin Marietta
Mission
Spacecraft
Bus & Motor
Unknown
Mass
2,302 kg wet, 124 kg dry
Launch date (UTC)
1965-05-06 (61 years ago)
Launch vehicle
TITAN IIIA
Launch site
Air Force Eastern Test Range (AFETR)
Object type
Payload
Rocket body
Debris
Shape & HBR
Unknown
Radar Cross Section
Large (>1 m²)

Expand to show TLE details & history
Last TLE update: 1 week ago

TLE from 1 week ago
0 TITAN 3A TRANSTAGE R/B
1 01359U 65034A   26152.39670380  .00000003  00000-0 -81837-3 0  9992
2 01359  32.1280 282.7693 0495601 341.3244  16.9628  9.17132712 47207
Epoch: 2026-06-01T09:31Z
TLE epoch observation values (Epoch: 2026-06-01T09:31:15.208Z)
Latitude
-0.00003°
Longitude
-109.92873°
Altitude
2,806.906 km
Speed
6.743 km/s
True Right ascension
18h 51m 04s
True Declination
0° 00' 00"
Sunlit
Object was in full shadow at epoch
Visualization orbit readout
Latitude
Unknown
Longitude
Unknown
Altitude
Unknown
Speed
Unknown
Apparent Right ascension
Unknown
Apparent Declination
Unknown
Sunlit
N/A
Visualization observer readout
Local Sidereal Time
13:04:38
Azimuth
Unknown
Elevation
Unknown
Doppler factor
Unknown
Orbital elements
Apogee altitude
3,743.255 km
Perigee altitude
2,787.393 km
Semi-major axis
9,643.461 km
Eccentricity
0.04956
Inclination
32.128°
RAAN
282.7693°
Arg. of periapsis
341.3244°
True anomaly
18.7235°
Mean anomaly
16.9628°
Eccentric anomaly
17.83238°
Mean motion
2.29189 °/min
Orbital period
157.08 mins
BSTAR
-0.00081837
Loading maneuver chart data...
Computing Atmospheric mass density...
Loading historical data...
Loading historical data...
Loading historical data...
Loading historical data...
Loading historical data...
Loading historical data...
Loading historical data...
Other satellites on launch #34 in the year 1965 (1965-05-06 UTC)

Documentation

Showing up to 5 results
|